Time,TemperatureF,DewpointF,PressureIn,WindDirection,WindDirectionDegrees,WindSpeedMPH,WindSpeedGustMPH,Humidity,HourlyPrecipIn,Conditions,Clouds,dailyrainin,SoftwareType,DateUTC
2013-08-29 00:01:00,70.0,68.8,29.88,East,90,0.0,1.0,96,0.00,,,0.20,VWS V14.01,2013-08-29 04:01:00,
2013-08-29 00:02:00,70.0,68.8,29.88,East,90,0.0,0.0,96,0.00,,,0.00,VWS V14.01,2013-08-29 04:02:00,
2013-08-29 00:07:00,69.9,68.7,29.88,East,90,0.0,0.0,96,0.00,,,0.00,VWS V14.01,2013-08-29 04:07:00,
2013-08-29 00:12:00,69.9,68.7,29.88,East,90,0.0,0.0,96,0.00,,,0.00,VWS V14.01,2013-08-29 04:12:00,
2013-08-29 00:17:00,69.9,68.7,29.88,East,90,0.0,0.0,96,0.00,,,0.00,VWS V14.01,2013-08-29 04:17:00,
2013-08-29 00:22:00,69.9,68.7,29.88,East,90,0.0,2.0,96,0.00,,,0.00,VWS V14.01,2013-08-29 04:22:00,
2013-08-29 00:27:00,69.8,68.6,29.88,East,90,0.0,0.0,96,0.00,,,0.00,VWS V14.01,2013-08-29 04:27:00,
2013-08-29 00:32:00,69.7,68.5,29.89,East,90,0.0,0.0,96,0.00,,,0.00,VWS V14.01,2013-08-29 04:32:00,
2013-08-29 00:37:00,69.7,68.5,29.89,East,90,0.0,0.0,96,0.00,,,0.00,VWS V14.01,2013-08-29 04:37:00,
2013-08-29 00:42:00,69.6,68.4,29.89,East,90,0.0,0.0,96,0.00,,,0.00,VWS V14.01,2013-08-29 04:42:00,
2013-08-29 00:47:00,69.5,68.3,29.89,East,90,0.0,0.0,96,0.00,,,0.00,VWS V14.01,2013-08-29 04:47:00,
2013-08-29 00:52:00,69.4,68.2,29.89,East,90,0.0,0.0,96,0.00,,,0.00,VWS V14.01,2013-08-29 04:52:00,
2013-08-29 00:57:00,69.3,68.1,29.89,East,90,0.0,0.0,96,0.00,,,0.00,VWS V14.01,2013-08-29 04:57:00,
2013-08-29 01:02:00,69.2,68.0,29.89,East,90,0.0,0.0,96,0.00,,,0.00,VWS V14.01,2013-08-29 05:02:00,
2013-08-29 01:07:00,69.1,67.9,29.89,East,90,0.0,0.0,96,0.00,,,0.00,VWS V14.01,2013-08-29 05:07:00,
2013-08-29 01:12:00,69.0,67.8,29.89,East,90,0.0,0.0,96,0.00,,,0.00,VWS V14.01,2013-08-29 05:12:00,
2013-08-29 01:17:00,68.8,67.3,29.89,East,90,0.0,0.0,95,0.00,,,0.00,VWS V14.01,2013-08-29 05:17:00,
2013-08-29 01:22:00,68.7,67.2,29.89,East,90,0.0,0.0,95,0.00,,,0.00,VWS V14.01,2013-08-29 05:22:00,
2013-08-29 01:27:00,68.6,67.1,29.89,East,90,0.0,0.0,95,0.00,,,0.00,VWS V14.01,2013-08-29 05:27:00,
2013-08-29 01:32:00,68.4,66.9,29.89,East,90,0.0,0.0,95,0.00,,,0.00,VWS V14.01,2013-08-29 05:32:00,
2013-08-29 01:37:00,68.3,67.1,29.89,East,90,0.0,0.0,96,0.00,,,0.00,VWS V14.01,2013-08-29 05:37:00,
2013-08-29 01:42:00,68.2,67.0,29.89,East,90,0.0,0.0,96,0.00,,,0.00,VWS V14.01,2013-08-29 05:42:00,
2013-08-29 01:47:00,68.2,66.7,29.89,East,90,0.0,0.0,95,0.00,,,0.00,VWS V14.01,2013-08-29 05:47:00,
2013-08-29 01:52:00,68.1,66.6,29.89,East,90,0.0,0.0,95,0.00,,,0.00,VWS V14.01,2013-08-29 05:52:00,
2013-08-29 01:57:00,68.0,66.5,29.89,East,90,0.0,0.0,95,0.00,,,0.00,VWS V14.01,2013-08-29 05:57:00,
2013-08-29 02:02:00,67.9,66.4,29.89,East,90,0.0,0.0,95,0.00,,,0.00,VWS V14.01,2013-08-29 06:02:00,
2013-08-29 02:07:00,67.7,66.5,29.89,East,90,0.0,0.0,96,0.00,,,0.00,VWS V14.01,2013-08-29 06:07:00,
2013-08-29 02:12:00,67.7,66.5,29.89,East,90,0.0,0.0,96,0.00,,,0.00,VWS V14.01,2013-08-29 06:12:00,
2013-08-29 02:16:00,67.6,66.4,29.90,East,90,0.0,0.0,96,0.00,,,0.00,VWS V14.01,2013-08-29 06:16:00,
2013-08-29 02:21:00,67.5,66.3,29.90,East,90,0.0,0.0,96,0.00,,,0.00,VWS V14.01,2013-08-29 06:21:00,
2013-08-29 02:26:00,67.4,65.9,29.90,East,90,0.0,0.0,95,0.00,,,0.00,VWS V14.01,2013-08-29 06:26:00,
2013-08-29 02:31:00,67.3,65.8,29.89,East,90,0.0,0.0,95,0.00,,,0.00,VWS V14.01,2013-08-29 06:31:00,
2013-08-29 02:36:00,67.2,65.7,29.89,East,90,0.0,0.0,95,0.00,,,0.00,VWS V14.01,2013-08-29 06:36:00,
2013-08-29 02:41:00,67.1,65.6,29.89,East,90,0.0,0.0,95,0.00,,,0.00,VWS V14.01,2013-08-29 06:41:00,
2013-08-29 02:46:00,67.0,65.5,29.89,East,90,0.0,0.0,95,0.00,,,0.00,VWS V14.01,2013-08-29 06:46:00,
2013-08-29 02:51:00,66.9,65.4,29.89,East,90,0.0,0.0,95,0.00,,,0.00,VWS V14.01,2013-08-29 06:51:00,
2013-08-29 02:56:00,66.8,65.3,29.89,East,90,0.0,0.0,95,0.00,,,0.00,VWS V14.01,2013-08-29 06:56:00,
2013-08-29 03:01:00,66.8,65.3,29.90,East,90,0.0,0.0,95,0.00,,,0.00,VWS V14.01,2013-08-29 07:01:00,
2013-08-29 03:06:00,66.7,65.2,29.90,East,90,0.0,0.0,95,0.00,,,0.00,VWS V14.01,2013-08-29 07:06:00,
2013-08-29 03:11:00,66.6,65.1,29.90,East,90,0.0,0.0,95,0.00,,,0.00,VWS V14.01,2013-08-29 07:11:00,
2013-08-29 03:16:00,66.6,65.1,29.91,East,90,0.0,0.0,95,0.00,,,0.00,VWS V14.01,2013-08-29 07:16:00,
2013-08-29 03:21:00,66.5,65.3,29.91,East,90,0.0,0.0,96,0.00,,,0.00,VWS V14.01,2013-08-29 07:21:00,
2013-08-29 03:26:00,66.5,65.3,29.91,East,90,0.0,0.0,96,0.00,,,0.00,VWS V14.01,2013-08-29 07:26:00,
2013-08-29 03:31:00,66.3,65.1,29.91,East,90,0.0,0.0,96,0.00,,,0.00,VWS V14.01,2013-08-29 07:31:00,
2013-08-29 03:36:00,66.3,65.1,29.91,East,90,0.0,0.0,96,0.00,,,0.00,VWS V14.01,2013-08-29 07:36:00,
2013-08-29 03:41:00,66.2,65.0,29.91,East,90,0.0,0.0,96,0.00,,,0.00,VWS V14.01,2013-08-29 07:41:00,
2013-08-29 03:46:00,66.2,65.0,29.90,East,90,0.0,0.0,96,0.00,,,0.00,VWS V14.01,2013-08-29 07:46:00,
2013-08-29 03:51:00,66.1,64.9,29.90,East,90,0.0,0.0,96,0.00,,,0.00,VWS V14.01,2013-08-29 07:51:00,
2013-08-29 03:56:00,66.1,64.9,29.90,East,90,0.0,0.0,96,0.00,,,0.00,VWS V14.01,2013-08-29 07:56:00,
2013-08-29 04:01:00,66.1,64.9,29.91,East,90,0.0,0.0,96,0.00,,,0.00,VWS V14.01,2013-08-29 08:01:00,
2013-08-29 04:06:00,66.0,64.8,29.91,East,90,0.0,0.0,96,0.00,,,0.00,VWS V14.01,2013-08-29 08:06:00,
2013-08-29 04:11:00,65.9,64.7,29.91,East,90,0.0,0.0,96,0.00,,,0.00,VWS V14.01,2013-08-29 08:11:00,
2013-08-29 04:16:00,65.9,64.7,29.91,East,90,0.0,0.0,96,0.00,,,0.00,VWS V14.01,2013-08-29 08:16:00,
2013-08-29 04:21:00,65.9,64.7,29.91,East,90,0.0,0.0,96,0.00,,,0.00,VWS V14.01,2013-08-29 08:21:00,
2013-08-29 04:26:00,65.8,64.6,29.91,East,90,0.0,0.0,96,0.00,,,0.00,VWS V14.01,2013-08-29 08:26:00,
2013-08-29 04:31:00,65.8,64.6,29.91,East,90,0.0,0.0,96,0.00,,,0.00,VWS V14.01,2013-08-29 08:31:00,
2013-08-29 04:36:00,65.7,64.5,29.91,East,90,0.0,0.0,96,0.00,,,0.00,VWS V14.01,2013-08-29 08:36:00,
2013-08-29 04:41:00,65.6,64.4,29.91,East,90,0.0,0.0,96,0.00,,,0.00,VWS V14.01,2013-08-29 08:41:00,
2013-08-29 04:46:00,65.6,64.4,29.91,East,90,0.0,0.0,96,0.00,,,0.00,VWS V14.01,2013-08-29 08:46:00,
2013-08-29 04:51:00,65.6,64.4,29.91,East,90,0.0,0.0,96,0.00,,,0.00,VWS V14.01,2013-08-29 08:51:00,
2013-08-29 04:56:00,65.5,64.3,29.91,East,90,0.0,0.0,96,0.00,,,0.00,VWS V14.01,2013-08-29 08:56:00,
2013-08-29 05:01:00,65.5,64.3,29.91,East,90,0.0,0.0,96,0.00,,,0.00,VWS V14.01,2013-08-29 09:01:00,
2013-08-29 05:06:00,65.4,64.2,29.91,East,90,0.0,0.0,96,0.00,,,0.00,VWS V14.01,2013-08-29 09:06:00,
2013-08-29 05:11:00,65.4,64.2,29.91,East,90,0.0,0.0,96,0.00,,,0.00,VWS V14.01,2013-08-29 09:11:00,
2013-08-29 05:16:00,65.4,64.2,29.91,East,90,0.0,0.0,96,0.00,,,0.00,VWS V14.01,2013-08-29 09:16:00,
2013-08-29 05:21:00,65.6,64.4,29.91,East,90,0.0,0.0,96,0.00,,,0.00,VWS V14.01,2013-08-29 09:21:00,
2013-08-29 05:26:00,65.6,64.4,29.91,East,90,0.0,0.0,96,0.00,,,0.00,VWS V14.01,2013-08-29 09:26:00,
2013-08-29 05:31:00,65.7,64.5,29.92,East,90,0.0,0.0,96,0.00,,,0.00,VWS V14.01,2013-08-29 09:31:00,
2013-08-29 05:36:00,65.8,64.6,29.92,East,90,0.0,0.0,96,0.00,,,0.00,VWS V14.01,2013-08-29 09:36:00,
2013-08-29 05:41:00,66.0,64.8,29.92,East,90,0.0,0.0,96,0.00,,,0.00,VWS V14.01,2013-08-29 09:41:00,
2013-08-29 05:46:00,66.3,65.1,29.92,East,90,0.0,0.0,96,0.00,,,0.00,VWS V14.01,2013-08-29 09:46:00,
2013-08-29 05:51:00,66.6,65.4,29.92,ENE,64,0.0,0.0,96,0.00,,,0.00,VWS V14.01,2013-08-29 09:51:00,
2013-08-29 05:56:00,66.7,65.5,29.92,ENE,64,0.0,0.0,96,0.00,,,0.00,VWS V14.01,2013-08-29 09:56:00,
2013-08-29 06:01:00,66.8,65.6,29.93,ENE,64,0.0,0.0,96,0.00,,,0.00,VWS V14.01,2013-08-29 10:01:00,
2013-08-29 06:06:00,67.0,65.8,29.93,ENE,64,0.0,0.0,96,0.00,,,0.00,VWS V14.01,2013-08-29 10:06:00,
2013-08-29 06:11:00,67.1,65.9,29.93,ENE,64,0.0,0.0,96,0.00,,,0.00,VWS V14.01,2013-08-29 10:11:00,
2013-08-29 06:16:00,67.2,66.0,29.94,ENE,64,0.0,0.0,96,0.00,,,0.00,VWS V14.01,2013-08-29 10:16:00,
2013-08-29 06:21:00,67.2,66.0,29.94,ENE,63,0.0,0.0,96,0.00,,,0.00,VWS V14.01,2013-08-29 10:21:00,
2013-08-29 06:26:00,67.2,66.0,29.94,ENE,63,0.0,0.0,96,0.00,,,0.00,VWS V14.01,2013-08-29 10:26:00,
2013-08-29 06:31:00,67.3,66.1,29.94,ENE,63,0.0,0.0,96,0.00,,,0.00,VWS V14.01,2013-08-29 10:31:00,
2013-08-29 06:36:00,67.3,66.1,29.94,ENE,63,0.0,0.0,96,0.00,,,0.00,VWS V14.01,2013-08-29 10:36:00,
2013-08-29 06:41:00,67.4,66.2,29.94,ENE,63,0.0,0.0,96,0.00,,,0.00,VWS V14.01,2013-08-29 10:41:00,
2013-08-29 06:46:00,67.4,66.2,29.94,ENE,63,0.0,0.0,96,0.00,,,0.00,VWS V14.01,2013-08-29 10:46:00,
2013-08-29 06:51:00,67.5,66.3,29.94,ENE,63,0.0,0.0,96,0.00,,,0.00,VWS V14.01,2013-08-29 10:51:00,
2013-08-29 06:56:00,67.6,66.4,29.94,ENE,63,0.0,0.0,96,0.00,,,0.00,VWS V14.01,2013-08-29 10:56:00,
2013-08-29 07:01:00,67.6,66.4,29.94,ENE,63,0.0,0.0,96,0.00,,,0.00,VWS V14.01,2013-08-29 11:01:00,
2013-08-29 07:06:00,67.6,66.4,29.94,ENE,63,0.0,0.0,96,0.00,,,0.00,VWS V14.01,2013-08-29 11:06:00,
2013-08-29 07:11:00,67.7,66.8,29.94,ENE,63,0.0,0.0,97,0.00,,,0.00,VWS V14.01,2013-08-29 11:11:00,
2013-08-29 07:16:00,67.7,66.8,29.95,ENE,63,0.0,0.0,97,0.00,,,0.00,VWS V14.01,2013-08-29 11:16:00,
2013-08-29 07:21:00,67.8,66.9,29.95,ENE,63,0.0,0.0,97,0.00,,,0.00,VWS V14.01,2013-08-29 11:21:00,
2013-08-29 07:26:00,67.9,67.0,29.95,ENE,63,0.0,0.0,97,0.00,,,0.00,VWS V14.01,2013-08-29 11:26:00,
2013-08-29 07:31:00,67.9,67.0,29.95,ENE,63,0.0,0.0,97,0.00,,,0.00,VWS V14.01,2013-08-29 11:31:00,
2013-08-29 07:36:00,68.0,67.1,29.95,ENE,63,0.0,0.0,97,0.00,,,0.00,VWS V14.01,2013-08-29 11:36:00,
2013-08-29 07:41:00,68.0,67.1,29.95,ENE,63,0.0,0.0,97,0.00,,,0.00,VWS V14.01,2013-08-29 11:41:00,
2013-08-29 07:46:00,68.1,67.2,29.96,ENE,63,0.0,0.0,97,0.00,,,0.00,VWS V14.01,2013-08-29 11:46:00,
2013-08-29 07:51:00,68.1,67.2,29.96,ENE,63,0.0,0.0,97,0.00,,,0.00,VWS V14.01,2013-08-29 11:51:00,
2013-08-29 07:56:00,68.2,67.3,29.96,ENE,63,0.0,0.0,97,0.00,,,0.00,VWS V14.01,2013-08-29 11:56:00,
2013-08-29 08:01:00,68.2,67.3,29.97,ENE,63,0.0,0.0,97,0.00,,,0.00,VWS V14.01,2013-08-29 12:01:00,
2013-08-29 08:06:00,68.2,67.3,29.97,ENE,63,0.0,0.0,97,0.00,,,0.00,VWS V14.01,2013-08-29 12:06:00,
2013-08-29 08:11:00,68.2,67.3,29.97,ENE,63,0.0,0.0,97,0.00,,,0.00,VWS V14.01,2013-08-29 12:11:00,
2013-08-29 08:16:00,68.1,67.2,29.97,ENE,63,0.0,0.0,97,0.00,,,0.00,VWS V14.01,2013-08-29 12:16:00,
2013-08-29 08:21:00,68.2,67.3,29.97,ENE,63,0.0,0.0,97,0.00,,,0.00,VWS V14.01,2013-08-29 12:21:00,
2013-08-29 08:26:00,68.1,67.2,29.97,ENE,63,0.0,0.0,97,0.00,,,0.00,VWS V14.01,2013-08-29 12:26:00,
2013-08-29 08:31:00,68.0,67.1,29.97,ENE,63,0.0,0.0,97,0.00,,,0.00,VWS V14.01,2013-08-29 12:31:00,
2013-08-29 08:36:00,67.9,67.0,29.97,ENE,63,0.0,0.0,97,0.00,,,0.00,VWS V14.01,2013-08-29 12:36:00,
2013-08-29 08:41:00,67.9,67.0,29.97,ENE,63,0.0,0.0,97,0.00,,,0.00,VWS V14.01,2013-08-29 12:41:00,
2013-08-29 08:46:00,67.9,67.0,29.97,ENE,63,0.0,0.0,97,0.00,,,0.00,VWS V14.01,2013-08-29 12:46:00,
2013-08-29 08:51:00,67.9,67.0,29.97,ENE,63,0.0,0.0,97,0.00,,,0.00,VWS V14.01,2013-08-29 12:51:00,
2013-08-29 08:56:00,67.8,66.9,29.97,ENE,63,0.0,0.0,97,0.00,,,0.00,VWS V14.01,2013-08-29 12:56:00,
2013-08-29 09:01:00,67.8,66.9,29.98,ENE,63,0.0,0.0,97,0.00,,,0.00,VWS V14.01,2013-08-29 13:01:00,
2013-08-29 09:06:00,67.8,66.9,29.98,ENE,63,0.0,0.0,97,0.00,,,0.00,VWS V14.01,2013-08-29 13:06:00,
2013-08-29 09:11:00,67.9,67.0,29.98,ENE,63,0.0,0.0,97,0.00,,,0.00,VWS V14.01,2013-08-29 13:11:00,
2013-08-29 09:16:00,67.9,67.0,29.98,ENE,63,0.0,0.0,97,0.00,,,0.00,VWS V14.01,2013-08-29 13:16:00,
2013-08-29 09:21:00,68.0,67.1,29.98,ENE,63,0.0,0.0,97,0.00,,,0.00,VWS V14.01,2013-08-29 13:21:00,
2013-08-29 09:26:00,68.1,67.2,29.98,ENE,63,0.0,0.0,97,0.00,,,0.00,VWS V14.01,2013-08-29 13:26:00,
2013-08-29 09:31:00,68.2,67.3,29.99,ENE,63,0.0,0.0,97,0.00,,,0.00,VWS V14.01,2013-08-29 13:31:00,
2013-08-29 09:36:00,68.3,67.4,29.99,ENE,63,0.0,0.0,97,0.00,,,0.00,VWS V14.01,2013-08-29 13:36:00,
2013-08-29 09:41:00,68.3,67.4,29.99,ENE,63,0.0,0.0,97,0.00,,,0.00,VWS V14.01,2013-08-29 13:41:00,
2013-08-29 09:46:00,68.4,67.5,29.99,ENE,63,0.0,0.0,97,0.00,,,0.00,VWS V14.01,2013-08-29 13:46:00,
2013-08-29 09:51:00,68.5,67.6,29.99,ENE,63,0.0,0.0,97,0.00,,,0.00,VWS V14.01,2013-08-29 13:51:00,
2013-08-29 09:56:00,68.5,67.6,29.99,ENE,63,0.0,0.0,97,0.00,,,0.00,VWS V14.01,2013-08-29 13:56:00,
2013-08-29 10:01:00,68.6,67.7,29.99,ENE,63,0.0,0.0,97,0.00,,,0.00,VWS V14.01,2013-08-29 14:01:00,
2013-08-29 10:06:00,68.6,67.7,29.99,ENE,63,0.0,0.0,97,0.00,,,0.00,VWS V14.01,2013-08-29 14:06:00,
2013-08-29 10:11:00,68.8,67.9,29.99,ENE,63,0.0,0.0,97,0.00,,,0.00,VWS V14.01,2013-08-29 14:11:00,
2013-08-29 10:16:00,68.9,68.0,29.99,ENE,63,0.0,0.0,97,0.00,,,0.00,VWS V14.01,2013-08-29 14:16:00,
2013-08-29 10:21:00,68.9,68.0,29.99,ENE,63,0.0,0.0,97,0.00,,,0.00,VWS V14.01,2013-08-29 14:21:00,
2013-08-29 10:26:00,68.9,68.0,29.99,ENE,63,0.0,0.0,97,0.00,,,0.00,VWS V14.01,2013-08-29 14:26:00,
2013-08-29 10:31:00,68.9,68.0,29.99,ENE,63,0.0,0.0,97,0.00,,,0.00,VWS V14.01,2013-08-29 14:31:00,
2013-08-29 10:36:00,68.9,68.0,29.99,ENE,63,0.0,0.0,97,0.00,,,0.00,VWS V14.01,2013-08-29 14:36:00,
2013-08-29 10:41:00,68.9,68.0,29.99,ENE,63,0.0,0.0,97,0.00,,,0.00,VWS V14.01,2013-08-29 14:41:00,
2013-08-29 10:46:00,69.0,68.1,30.00,ENE,63,0.0,0.0,97,0.00,,,0.00,VWS V14.01,2013-08-29 14:46:00,
2013-08-29 10:51:00,69.1,68.2,30.00,ENE,63,0.0,0.0,97,0.00,,,0.00,VWS V14.01,2013-08-29 14:51:00,
2013-08-29 10:56:00,69.1,68.2,30.00,ENE,63,0.0,0.0,97,0.00,,,0.00,VWS V14.01,2013-08-29 14:56:00,
2013-08-29 11:01:00,69.2,68.3,30.00,ENE,63,0.0,0.0,97,0.00,,,0.00,VWS V14.01,2013-08-29 15:01:00,
2013-08-29 11:06:00,69.2,68.3,30.00,ENE,63,0.0,0.0,97,0.00,,,0.00,VWS V14.01,2013-08-29 15:06:00,
2013-08-29 11:11:00,69.3,68.4,30.00,ENE,63,0.0,0.0,97,0.00,,,0.00,VWS V14.01,2013-08-29 15:11:00,
2013-08-29 11:16:00,69.3,68.4,30.00,ENE,63,0.0,0.0,97,0.00,,,0.00,VWS V14.01,2013-08-29 15:16:00,
2013-08-29 11:21:00,69.3,68.4,30.00,ENE,63,0.0,0.0,97,0.00,,,0.00,VWS V14.01,2013-08-29 15:21:00,
2013-08-29 11:26:00,69.3,68.4,30.00,ENE,63,0.0,0.0,97,0.00,,,0.00,VWS V14.01,2013-08-29 15:26:00,
2013-08-29 11:31:00,69.3,68.4,30.00,ENE,63,0.0,0.0,97,0.00,,,0.00,VWS V14.01,2013-08-29 15:31:00,
2013-08-29 11:36:00,69.3,68.4,30.00,ENE,63,0.0,0.0,97,0.00,,,0.00,VWS V14.01,2013-08-29 15:36:00,
2013-08-29 11:41:00,69.3,68.4,30.00,SSE,159,1.0,1.0,97,0.00,,,0.00,VWS V14.01,2013-08-29 15:41:00,
2013-08-29 11:46:00,69.2,68.3,30.00,SSE,163,0.0,0.0,97,0.00,,,0.00,VWS V14.01,2013-08-29 15:46:00,
2013-08-29 11:51:00,69.0,68.1,30.00,SSE,161,0.0,0.0,97,0.00,,,0.00,VWS V14.01,2013-08-29 15:51:00,
2013-08-29 11:56:00,68.9,67.7,30.00,ESE,111,0.0,0.0,96,0.00,,,0.00,VWS V14.01,2013-08-29 15:56:00,
2013-08-29 12:01:00,68.9,67.7,30.00,ESE,111,0.0,0.0,96,0.00,,,0.00,VWS V14.01,2013-08-29 16:01:00,
2013-08-29 12:06:00,69.0,67.8,30.00,ESE,111,0.0,0.0,96,0.01,,,0.01,VWS V14.01,2013-08-29 16:06:00,
2013-08-29 12:11:00,69.0,67.8,30.00,ESE,111,0.0,0.0,96,0.01,,,0.01,VWS V14.01,2013-08-29 16:11:00,
2013-08-29 12:16:00,69.1,68.2,30.00,ESE,112,0.0,0.0,97,0.01,,,0.01,VWS V14.01,2013-08-29 16:16:00,
2013-08-29 12:21:00,69.2,68.3,30.00,ESE,112,0.0,0.0,97,0.01,,,0.01,VWS V14.01,2013-08-29 16:21:00,
2013-08-29 12:26:00,69.4,68.5,30.00,SSE,163,0.0,1.0,97,0.01,,,0.01,VWS V14.01,2013-08-29 16:26:00,
2013-08-29 12:31:00,69.6,68.4,30.00,SSE,163,0.0,1.0,96,0.01,,,0.01,VWS V14.01,2013-08-29 16:31:00,
2013-08-29 12:36:00,70.0,69.1,30.00,SSE,163,0.0,2.0,97,0.01,,,0.01,VWS V14.01,2013-08-29 16:36:00,
2013-08-29 12:41:00,70.3,69.1,30.00,SSE,163,0.0,2.0,96,0.01,,,0.01,VWS V14.01,2013-08-29 16:41:00,
2013-08-29 12:46:00,70.4,69.2,30.00,NE,55,0.0,2.0,96,0.01,,,0.01,VWS V14.01,2013-08-29 16:46:00,
2013-08-29 12:51:00,70.7,69.5,30.00,NE,55,1.0,2.0,96,0.01,,,0.01,VWS V14.01,2013-08-29 16:51:00,
2013-08-29 12:56:00,70.9,69.7,30.00,NE,56,0.0,1.0,96,0.01,,,0.01,VWS V14.01,2013-08-29 16:56:00,
2013-08-29 13:01:00,70.8,69.3,30.00,NE,56,0.0,1.0,95,0.01,,,0.01,VWS V14.01,2013-08-29 17:01:00,
2013-08-29 13:06:00,71.0,69.5,30.00,NE,56,0.0,0.0,95,0.01,,,0.01,VWS V14.01,2013-08-29 17:06:00,
2013-08-29 13:11:00,71.3,69.8,30.00,ENE,59,0.0,1.0,95,0.01,,,0.01,VWS V14.01,2013-08-29 17:11:00,
2013-08-29 13:16:00,71.8,70.3,30.00,ENE,59,0.0,1.0,95,0.00,,,0.01,VWS V14.01,2013-08-29 17:16:00,
2013-08-29 13:21:00,72.3,70.5,30.00,ENE,59,0.0,2.0,94,0.00,,,0.01,VWS V14.01,2013-08-29 17:21:00,
2013-08-29 13:26:00,72.4,70.6,30.00,ENE,59,1.0,1.0,94,0.00,,,0.01,VWS V14.01,2013-08-29 17:26:00,
2013-08-29 13:31:00,72.3,69.8,30.00,ENE,59,0.0,1.0,92,0.00,,,0.01,VWS V14.01,2013-08-29 17:31:00,
2013-08-29 13:36:00,72.5,69.7,30.00,ENE,59,0.0,0.0,91,0.00,,,0.01,VWS V14.01,2013-08-29 17:36:00,
2013-08-29 13:41:00,72.5,69.7,30.00,ENE,59,0.0,0.0,91,0.00,,,0.01,VWS V14.01,2013-08-29 17:41:00,
2013-08-29 13:46:00,72.7,69.9,30.00,ENE,69,0.0,2.0,91,0.00,,,0.01,VWS V14.01,2013-08-29 17:46:00,
2013-08-29 13:51:00,73.0,69.9,30.00,South,171,0.0,2.0,90,0.00,,,0.01,VWS V14.01,2013-08-29 17:51:00,
2013-08-29 13:56:00,73.1,69.7,30.00,South,171,0.0,0.0,89,0.00,,,0.01,VWS V14.01,2013-08-29 17:56:00,
2013-08-29 14:01:00,73.3,69.5,30.00,ESE,113,0.0,0.0,88,0.00,,,0.01,VWS V14.01,2013-08-29 18:01:00,
2013-08-29 14:06:00,73.4,69.3,30.00,ESE,113,0.0,0.0,87,0.00,,,0.01,VWS V14.01,2013-08-29 18:06:00,
2013-08-29 14:11:00,73.6,69.5,30.00,ESE,113,0.0,0.0,87,0.00,,,0.01,VWS V14.01,2013-08-29 18:11:00,
2013-08-29 14:16:00,73.8,69.3,30.00,SE,124,0.0,2.0,86,0.00,,,0.01,VWS V14.01,2013-08-29 18:16:00,
2013-08-29 14:21:00,74.1,70.0,29.99,ESE,123,0.0,2.0,87,0.00,,,0.01,VWS V14.01,2013-08-29 18:21:00,
2013-08-29 14:26:00,74.2,69.8,29.99,ESE,123,0.0,0.0,86,0.00,,,0.01,VWS V14.01,2013-08-29 18:26:00,
2013-08-29 14:31:00,74.4,69.6,29.99,ESE,123,0.0,0.0,85,0.00,,,0.01,VWS V14.01,2013-08-29 18:31:00,
2013-08-29 14:36:00,74.5,69.3,29.99,ESE,121,0.0,0.0,84,0.00,,,0.01,VWS V14.01,2013-08-29 18:36:00,
2013-08-29 14:41:00,74.6,69.1,29.99,ESE,121,0.0,1.0,83,0.00,,,0.01,VWS V14.01,2013-08-29 18:41:00,
2013-08-29 14:46:00,74.6,69.1,29.99,ESE,121,1.0,1.0,83,0.00,,,0.01,VWS V14.01,2013-08-29 18:46:00,
2013-08-29 14:51:00,74.7,68.8,29.99,East,101,0.0,1.0,82,0.00,,,0.01,VWS V14.01,2013-08-29 18:51:00,
2013-08-29 14:56:00,74.7,69.6,29.99,East,101,0.0,0.0,84,0.00,,,0.01,VWS V14.01,2013-08-29 18:56:00,
2013-08-29 15:01:00,74.6,69.1,29.99,East,101,0.0,0.0,83,0.00,,,0.01,VWS V14.01,2013-08-29 19:01:00,
2013-08-29 15:06:00,74.7,69.2,29.98,East,101,0.0,1.0,83,0.00,,,0.01,VWS V14.01,2013-08-29 19:06:00,
2013-08-29 15:11:00,74.9,69.7,29.98,NW,311,0.0,2.0,84,0.00,,,0.01,VWS V14.01,2013-08-29 19:11:00,
2013-08-29 15:16:00,75.0,69.5,29.98,NW,312,0.0,1.0,83,0.00,,,0.01,VWS V14.01,2013-08-29 19:16:00,
2013-08-29 15:21:00,75.1,69.6,29.97,NW,312,0.0,1.0,83,0.00,,,0.01,VWS V14.01,2013-08-29 19:21:00,
2013-08-29 15:26:00,75.2,69.7,29.97,SE,137,0.0,3.0,83,0.00,,,0.01,VWS V14.01,2013-08-29 19:26:00,
2013-08-29 15:31:00,75.3,69.4,29.97,SE,137,0.0,3.0,82,0.00,,,0.01,VWS V14.01,2013-08-29 19:31:00,
2013-08-29 15:36:00,75.5,69.6,29.98,SE,137,0.0,1.0,82,0.00,,,0.01,VWS V14.01,2013-08-29 19:36:00,
2013-08-29 15:41:00,75.6,69.7,29.98,SE,137,0.0,1.0,82,0.00,,,0.01,VWS V14.01,2013-08-29 19:41:00,
2013-08-29 15:46:00,75.7,69.8,29.98,SE,136,0.0,1.0,82,0.00,,,0.01,VWS V14.01,2013-08-29 19:46:00,
2013-08-29 15:51:00,75.9,70.4,29.98,East,90,0.0,2.0,83,0.00,,,0.01,VWS V14.01,2013-08-29 19:51:00,
2013-08-29 15:56:00,76.0,69.8,29.98,East,90,1.0,2.0,81,0.00,,,0.01,VWS V14.01,2013-08-29 19:56:00,
2013-08-29 16:01:00,76.0,69.8,29.98,East,94,0.0,2.0,81,0.00,,,0.01,VWS V14.01,2013-08-29 20:01:00,
2013-08-29 16:06:00,76.0,69.8,29.98,ENE,74,0.0,2.0,81,0.00,,,0.01,VWS V14.01,2013-08-29 20:06:00,
2013-08-29 16:11:00,75.9,69.7,29.98,ESE,116,0.0,2.0,81,0.00,,,0.01,VWS V14.01,2013-08-29 20:11:00,
2013-08-29 16:16:00,75.9,69.7,29.98,ESE,116,0.0,1.0,81,0.00,,,0.01,VWS V14.01,2013-08-29 20:16:00,
2013-08-29 16:21:00,75.8,69.6,29.97,ESE,116,0.0,1.0,81,0.00,,,0.01,VWS V14.01,2013-08-29 20:21:00,
2013-08-29 16:26:00,75.7,69.5,29.97,ESE,116,0.0,0.0,81,0.00,,,0.01,VWS V14.01,2013-08-29 20:26:00,
2013-08-29 16:31:00,75.8,69.9,29.97,ESE,116,0.0,0.0,82,0.00,,,0.01,VWS V14.01,2013-08-29 20:31:00,
2013-08-29 16:36:00,76.0,69.8,29.97,SE,126,0.0,3.0,81,0.00,,,0.01,VWS V14.01,2013-08-29 20:36:00,
2013-08-29 16:40:00,76.3,69.3,29.97,SSE,163,0.0,3.0,79,0.00,,,0.01,VWS V14.01,2013-08-29 20:40:00,
2013-08-29 16:46:00,76.7,69.3,29.97,SSE,161,0.0,1.0,78,0.00,,,0.01,VWS V14.01,2013-08-29 20:46:00,
2013-08-29 16:50:00,77.0,69.6,29.97,SSE,150,0.0,1.0,78,0.00,,,0.01,VWS V14.01,2013-08-29 20:50:00,
2013-08-29 16:55:00,77.3,69.5,29.97,SSE,150,0.0,0.0,77,0.00,,,0.01,VWS V14.01,2013-08-29 20:55:00,
2013-08-29 17:00:00,77.7,69.9,29.97,SSE,150,0.0,2.0,77,0.00,,,0.01,VWS V14.01,2013-08-29 21:00:00,
2013-08-29 17:05:00,78.1,69.9,29.97,SSE,150,0.0,3.0,76,0.00,,,0.01,VWS V14.01,2013-08-29 21:05:00,
2013-08-29 17:10:00,78.5,69.9,29.97,South,175,1.0,3.0,75,0.00,,,0.01,VWS V14.01,2013-08-29 21:10:00,
2013-08-29 17:15:00,78.9,70.3,29.97,South,175,0.0,2.0,75,0.00,,,0.01,VWS V14.01,2013-08-29 21:15:00,
2013-08-29 17:20:00,79.1,70.1,29.97,South,173,0.0,2.0,74,0.00,,,0.01,VWS V14.01,2013-08-29 21:20:00,
2013-08-29 17:25:00,79.1,70.1,29.97,South,173,0.0,1.0,74,0.00,,,0.01,VWS V14.01,2013-08-29 21:25:00,
2013-08-29 17:30:00,78.9,69.5,29.97,South,173,0.0,1.0,73,0.00,,,0.01,VWS V14.01,2013-08-29 21:30:00,
2013-08-29 17:35:00,78.7,69.7,29.97,South,173,0.0,3.0,74,0.00,,,0.01,VWS V14.01,2013-08-29 21:35:00,
2013-08-29 17:40:00,78.5,69.5,29.97,South,173,0.0,3.0,74,0.00,,,0.01,VWS V14.01,2013-08-29 21:40:00,
2013-08-29 17:45:00,78.5,69.9,29.97,South,173,0.0,0.0,75,0.00,,,0.01,VWS V14.01,2013-08-29 21:45:00,
2013-08-29 17:50:00,78.4,69.8,29.97,South,173,0.0,2.0,75,0.00,,,0.01,VWS V14.01,2013-08-29 21:50:00,
2013-08-29 17:55:00,78.3,69.7,29.97,SSE,167,0.0,2.0,75,0.00,,,0.01,VWS V14.01,2013-08-29 21:55:00,
2013-08-29 18:00:00,78.1,69.5,29.97,SSE,166,0.0,2.0,75,0.00,,,0.01,VWS V14.01,2013-08-29 22:00:00,
2013-08-29 18:05:00,77.9,69.7,29.97,SSE,166,0.0,1.0,76,0.00,,,0.01,VWS V14.01,2013-08-29 22:05:00,
2013-08-29 18:10:00,77.7,69.5,29.97,SSE,166,0.0,1.0,76,0.00,,,0.01,VWS V14.01,2013-08-29 22:10:00,
2013-08-29 18:15:00,77.5,69.7,29.97,North,360,0.0,3.0,77,0.00,,,0.01,VWS V14.01,2013-08-29 22:15:00,
2013-08-29 18:20:00,77.2,69.1,29.97,North,360,0.0,3.0,76,0.00,,,0.01,VWS V14.01,2013-08-29 22:20:00,
2013-08-29 18:25:00,77.0,69.2,29.97,North,360,0.0,0.0,77,0.00,,,0.01,VWS V14.01,2013-08-29 22:25:00,
2013-08-29 18:30:00,76.8,69.1,29.97,North,360,0.0,0.0,77,0.00,,,0.01,VWS V14.01,2013-08-29 22:30:00,
2013-08-29 18:35:00,76.6,68.9,29.98,North,360,0.0,0.0,77,0.00,,,0.01,VWS V14.01,2013-08-29 22:35:00,
2013-08-29 18:40:00,76.5,69.1,29.98,ESE,115,0.0,0.0,78,0.00,,,0.01,VWS V14.01,2013-08-29 22:40:00,
2013-08-29 18:45:00,76.3,68.9,29.98,ESE,115,0.0,0.0,78,0.00,,,0.01,VWS V14.01,2013-08-29 22:45:00,
2013-08-29 18:50:00,76.2,69.2,29.97,ESE,115,0.0,0.0,79,0.00,,,0.01,VWS V14.01,2013-08-29 22:50:00,
2013-08-29 18:55:00,76.0,69.4,29.97,ESE,115,0.0,0.0,80,0.00,,,0.01,VWS V14.01,2013-08-29 22:55:00,
2013-08-29 19:00:00,75.8,69.2,29.97,ESE,115,0.0,0.0,80,0.00,,,0.01,VWS V14.01,2013-08-29 23:00:00,
2013-08-29 19:05:00,75.7,69.8,29.98,ESE,115,0.0,0.0,82,0.00,,,0.01,VWS V14.01,2013-08-29 23:05:00,
2013-08-29 19:10:00,75.4,69.5,29.98,ESE,115,0.0,0.0,82,0.00,,,0.01,VWS V14.01,2013-08-29 23:10:00,
2013-08-29 19:15:00,75.1,69.2,29.98,SE,140,0.0,1.0,82,0.00,,,0.01,VWS V14.01,2013-08-29 23:15:00,
2013-08-29 19:20:00,74.8,68.9,29.99,SE,140,0.0,1.0,82,0.00,,,0.01,VWS V14.01,2013-08-29 23:20:00,
2013-08-29 19:25:00,74.6,68.8,29.99,SE,140,0.0,0.0,82,0.00,,,0.01,VWS V14.01,2013-08-29 23:25:00,
2013-08-29 19:30:00,74.4,68.6,29.99,SE,140,0.0,0.0,82,0.00,,,0.01,VWS V14.01,2013-08-29 23:30:00,
2013-08-29 19:35:00,74.2,68.4,29.98,SE,140,0.0,0.0,82,0.00,,,0.01,VWS V14.01,2013-08-29 23:35:00,
2013-08-29 19:40:00,74.1,68.6,29.98,SE,140,0.0,0.0,83,0.00,,,0.01,VWS V14.01,2013-08-29 23:40:00,
2013-08-29 19:45:00,73.9,68.4,29.98,SE,140,0.0,0.0,83,0.00,,,0.01,VWS V14.01,2013-08-29 23:45:00,
2013-08-29 19:50:00,73.8,68.3,29.98,SE,140,0.0,0.0,83,0.00,,,0.01,VWS V14.01,2013-08-29 23:50:00,
2013-08-29 19:55:00,73.6,68.1,29.98,SE,140,0.0,0.0,83,0.00,,,0.01,VWS V14.01,2013-08-29 23:55:00,
2013-08-29 20:00:00,73.4,67.9,29.98,SE,140,0.0,0.0,83,0.00,,,0.01,VWS V14.01,2013-08-30 00:00:00,
2013-08-29 20:05:00,73.2,68.1,29.98,SE,140,0.0,0.0,84,0.00,,,0.01,VWS V14.01,2013-08-30 00:05:00,
2013-08-29 20:10:00,72.9,68.1,29.98,SE,140,0.0,0.0,85,0.00,,,0.01,VWS V14.01,2013-08-30 00:10:00,
2013-08-29 20:15:00,72.7,67.9,29.99,SE,140,0.0,0.0,85,0.00,,,0.01,VWS V14.01,2013-08-30 00:15:00,
2013-08-29 20:20:00,72.5,68.1,29.99,SE,140,0.0,0.0,86,0.00,,,0.01,VWS V14.01,2013-08-30 00:20:00,
2013-08-29 20:25:00,72.3,67.9,29.99,SE,140,0.0,0.0,86,0.00,,,0.01,VWS V14.01,2013-08-30 00:25:00,
2013-08-29 20:30:00,72.0,67.9,29.99,SE,140,0.0,0.0,87,0.00,,,0.01,VWS V14.01,2013-08-30 00:30:00,
2013-08-29 20:35:00,71.8,68.1,29.99,SE,140,0.0,0.0,88,0.00,,,0.01,VWS V14.01,2013-08-30 00:35:00,
2013-08-29 20:40:00,71.6,67.5,29.99,SE,140,0.0,0.0,87,0.00,,,0.01,VWS V14.01,2013-08-30 00:40:00,
2013-08-29 20:45:00,71.5,67.8,29.99,SE,140,0.0,0.0,88,0.00,,,0.01,VWS V14.01,2013-08-30 00:45:00,
2013-08-29 20:50:00,71.3,67.6,29.99,SE,140,0.0,0.0,88,0.00,,,0.01,VWS V14.01,2013-08-30 00:50:00,
2013-08-29 20:55:00,71.2,67.5,29.99,SE,140,0.0,0.0,88,0.00,,,0.01,VWS V14.01,2013-08-30 00:55:00,
2013-08-29 21:00:00,71.1,67.7,30.00,SE,140,0.0,0.0,89,0.00,,,0.01,VWS V14.01,2013-08-30 01:00:00,
2013-08-29 21:05:00,71.0,67.6,30.00,SE,146,6.0,6.0,89,0.00,,,0.01,VWS V14.01,2013-08-30 01:05:00,
2013-08-29 21:10:00,70.8,67.4,30.00,SE,138,0.0,7.0,89,0.00,,,0.01,VWS V14.01,2013-08-30 01:10:00,
2013-08-29 21:15:00,70.6,67.2,30.00,SE,138,0.0,1.0,89,0.00,,,0.01,VWS V14.01,2013-08-30 01:15:00,
2013-08-29 21:20:00,70.6,67.2,30.00,SE,138,0.0,1.0,89,0.00,,,0.01,VWS V14.01,2013-08-30 01:20:00,
2013-08-29 21:25:00,70.5,67.1,30.00,SE,138,0.0,0.0,89,0.00,,,0.01,VWS V14.01,2013-08-30 01:25:00,
2013-08-29 21:30:00,70.4,67.0,30.00,SE,138,0.0,0.0,89,0.00,,,0.01,VWS V14.01,2013-08-30 01:30:00,
2013-08-29 21:35:00,70.4,67.0,30.00,SE,138,0.0,2.0,89,0.00,,,0.01,VWS V14.01,2013-08-30 01:35:00,
2013-08-29 21:40:00,70.3,66.9,30.00,SE,138,0.0,2.0,89,0.00,,,0.01,VWS V14.01,2013-08-30 01:40:00,
2013-08-29 21:45:00,70.2,66.5,30.00,SE,138,0.0,2.0,88,0.00,,,0.01,VWS V14.01,2013-08-30 01:45:00,
2013-08-29 21:50:00,70.1,66.4,30.00,SE,138,0.0,2.0,88,0.00,,,0.01,VWS V14.01,2013-08-30 01:50:00,
2013-08-29 22:00:00,69.9,66.2,30.00,SE,135,0.0,2.0,88,0.00,,,0.01,VWS V14.01,2013-08-30 02:00:00,
2013-08-29 22:10:00,69.8,66.1,30.00,SE,135,0.0,0.0,88,0.00,,,0.01,VWS V14.01,2013-08-30 02:10:00,
2013-08-29 22:20:00,69.7,66.0,30.00,SE,135,0.0,4.0,88,0.00,,,0.01,VWS V14.01,2013-08-30 02:20:00,
2013-08-29 22:30:00,69.6,65.9,30.00,SE,135,0.0,4.0,88,0.00,,,0.01,VWS V14.01,2013-08-30 02:30:00,
2013-08-29 22:40:00,69.5,65.8,30.00,SE,135,0.0,3.0,88,0.00,,,0.01,VWS V14.01,2013-08-30 02:40:00,
2013-08-29 22:50:00,69.3,65.9,29.99,SE,135,0.0,3.0,89,0.00,,,0.01,VWS V14.01,2013-08-30 02:50:00,
2013-08-29 23:00:00,69.1,66.1,29.99,SE,135,0.0,1.0,90,0.03,,,0.04,VWS V14.01,2013-08-30 03:00:00,
2013-08-29 23:10:00,68.9,66.2,29.99,SE,135,0.0,1.0,91,0.03,,,0.04,VWS V14.01,2013-08-30 03:10:00,
2013-08-29 23:25:00,68.9,66.2,29.99,SE,135,0.0,1.0,91,0.03,,,0.04,VWS V14.01,2013-08-30 03:25:00,
2013-08-29 23:30:00,68.4,65.7,30.00,SE,134,0.0,1.0,91,0.03,,,0.04,VWS V14.01,2013-08-30 03:30:00,
2013-08-29 23:35:00,68.3,65.6,30.00,SE,134,0.0,0.0,91,0.03,,,0.04,VWS V14.01,2013-08-30 03:35:00,
2013-08-29 23:40:00,68.3,65.9,30.00,SE,134,0.0,0.0,92,0.03,,,0.04,VWS V14.01,2013-08-30 03:40:00,
2013-08-29 23:45:00,68.2,65.8,30.00,SE,134,0.0,0.0,92,0.03,,,0.04,VWS V14.01,2013-08-30 03:45:00,
2013-08-29 23:50:00,68.2,65.8,30.00,SE,134,0.0,0.0,92,0.03,,,0.04,VWS V14.01,2013-08-30 03:50:00,
2013-08-29 23:55:00,68.1,65.7,30.00,SE,134,0.0,3.0,92,0.03,,,0.04,VWS V14.01,2013-08-30 03:55:00,